• In Hungary
  • List of Countries
  • For 7 days
  • Water Temperature
  • Satellite Maps
  • Weather Map
  • News
  • Weather Widgets
  • user-avatar
    Login

    Hourly Weather Zlockie

    Today, 18 July, Wednesday

    Time Temperature Precipitation Wind Pressure Humidity
    00:00 +16°C° 0.2 mm 2 mps 709 mmHg 96%
    01:00 +16°C° 0 mm 2 mps 708 mmHg 96%
    02:00 +16°C° 0.4 mm 2 mps 708 mmHg 96%
    03:00 +16°C° 0.4 mm 2 mps 708 mmHg 97%
    04:00 +16°C° 0.4 mm 2 mps 708 mmHg 97%
    05:00 +17°C° 0.7 mm 2 mps 708 mmHg 96%
    06:00 +17°C° 0.7 mm 2 mps 708 mmHg 95%
    07:00 +17°C° 0 mm 2 mps 708 mmHg 95%
    08:00 +17°C° 1.4 mm 2 mps 708 mmHg 95%
    09:00 +18°C° 1.4 mm 2 mps 709 mmHg 95%
    10:00 +18°C° 1.4 mm 2 mps 709 mmHg 95%
    11:00 +18°C° 0.6 mm 2 mps 709 mmHg 94%
    12:00 +18°C° 0.6 mm 2 mps 709 mmHg 94%
    13:00 +19°C° 0.6 mm 2 mps 709 mmHg 93%
    14:00 +19°C° 0.4 mm 2 mps 709 mmHg 93%
    15:00 +19°C° 0.4 mm 2 mps 709 mmHg 92%
    16:00 +19°C° 0.4 mm 3 mps 709 mmHg 92%
    17:00 +19°C° 0.9 mm 3 mps 709 mmHg 93%
    18:00 +19°C° 0.9 mm 3 mps 709 mmHg 94%
    19:00 +19°C° 0.9 mm 3 mps 710 mmHg 95%
    20:00 +19°C° 0.8 mm 3 mps 710 mmHg 95%
    21:00 +18°C° 0.8 mm 3 mps 710 mmHg 96%
    22:00 +18°C° 0.8 mm 3 mps 710 mmHg 97%
    23:00 +18°C° 0.3 mm 3 mps 710 mmHg 97%

    Tomorrow, 19 July, Thursday

    Time Temperature Precipitation Wind Pressure Humidity
    00:00 +18°C° 0.3 mm 3 mps 711 mmHg 97%
    01:00 +18°C° 0.3 mm 3 mps 711 mmHg 97%
    02:00 +18°C° 0.2 mm 3 mps 711 mmHg 97%
    03:00 +18°C° 0.2 mm 3 mps 711 mmHg 97%
    04:00 +18°C° 0.2 mm 3 mps 711 mmHg 97%
    05:00 +18°C° 0.4 mm 3 mps 711 mmHg 96%
    06:00 +18°C° 0.4 mm 3 mps 712 mmHg 95%
    07:00 +18°C° 0.4 mm 3 mps 712 mmHg 95%
    08:00 +18°C° 0.6 mm 3 mps 712 mmHg 94%
    09:00 +18°C° 0.6 mm 3 mps 712 mmHg 93%
    10:00 +19°C° 0.6 mm 3 mps 713 mmHg 92%
    11:00 +19°C° 0.2 mm 4 mps 713 mmHg 90%
    12:00 +20°C° 0.2 mm 4 mps 713 mmHg 87%
    13:00 +20°C° 0.2 mm 4 mps 713 mmHg 85%
    14:00 +20°C° 0.1 mm 4 mps 713 mmHg 85%
    15:00 +20°C° 0.1 mm 4 mps 713 mmHg 85%
    16:00 +20°C° 0.1 mm 4 mps 713 mmHg 84%
    17:00 +19°C° 0 mm 4 mps 713 mmHg 86%
    18:00 +19°C° 0 mm 3 mps 713 mmHg 88%
    19:00 +18°C° 0 mm 3 mps 713 mmHg 90%
    20:00 +18°C° 0 mm 3 mps 713 mmHg 92%
    21:00 +17°C° 0 mm 3 mps 713 mmHg 94%
    22:00 +17°C° 0 mm 2 mps 714 mmHg 96%
    23:00 +17°C° 0 mm 2 mps 714 mmHg 96%

    Day after tomorrow, 20 July, Friday

    Time Temperature Precipitation Wind Pressure Humidity
    00:00 +17°C° 0 mm 2 mps 714 mmHg 96%
    01:00 +16°C° 0 mm 2 mps 713 mmHg 97%
    02:00 +16°C° 0.1 mm 2 mps 713 mmHg 97%
    03:00 +17°C° 0.1 mm 2 mps 713 mmHg 97%
    04:00 +17°C° 0.1 mm 2 mps 713 mmHg 96%
    05:00 +17°C° 0.1 mm 2 mps 714 mmHg 95%
    06:00 +17°C° 0.1 mm 2 mps 714 mmHg 94%
    07:00 +18°C° 0.1 mm 2 mps 714 mmHg 93%
    08:00 +18°C° 0.1 mm 3 mps 714 mmHg 90%
    09:00 +19°C° 0.1 mm 3 mps 715 mmHg 86%
    10:00 +20°C° 0.1 mm 3 mps 715 mmHg 83%
    11:00 +21°C° 0 mm 3 mps 715 mmHg 74%
    12:00 +23°C° 0 mm 4 mps 715 mmHg 66%
    13:00 +25°C° 0 mm 4 mps 715 mmHg 57%
    14:00 +25°C° 0 mm 4 mps 715 mmHg 59%
    15:00 +25°C° 0 mm 4 mps 714 mmHg 60%
    16:00 +25°C° 0 mm 4 mps 714 mmHg 61%
    17:00 +22°C° 0 mm 3 mps 714 mmHg 69%
    18:00 +21°C° 0 mm 2 mps 714 mmHg 76%
    19:00 +19°C° 0 mm 2 mps 714 mmHg 84%
    20:00 +18°C° 0 mm 2 mps 714 mmHg 87%
    21:00 +18°C° 0 mm 1 mps 714 mmHg 90%
    22:00 +16°C° 0 mm 1 mps 714 mmHg 93%
    23:00 +16°C° 0 mm 1 mps 714 mmHg 94%

    21 July, Saturday

    Time Temperature Precipitation Wind Pressure Humidity
    00:00 +15°C° 0 mm 1 mps 714 mmHg 94%
    01:00 +15°C° 0 mm 1 mps 714 mmHg 94%
    02:00 +15°C° 0 mm 1 mps 714 mmHg 95%
    03:00 +15°C° 0 mm 1 mps 714 mmHg 95%
    04:00 +14°C° 0 mm 1 mps 714 mmHg 95%
    05:00 +16°C° 0 mm 1 mps 714 mmHg 89%
    06:00 +19°C° 0 mm 1 mps 714 mmHg 82%
    07:00 +19°C° 0 mm 0 mps 714 mmHg 76%
    08:00 +23°C° 0 mm 1 mps 714 mmHg 70%
    09:00 +24°C° 0 mm 1 mps 715 mmHg 64%
    10:00 +26°C° 0 mm 1 mps 715 mmHg 58%
    11:00 +26°C° 0.2 mm 1 mps 714 mmHg 58%
    12:00 +26°C° 0.2 mm 1 mps 714 mmHg 58%
    13:00 +26°C° 0.2 mm 1 mps 714 mmHg 58%
    14:00 +26°C° 0.5 mm 1 mps 714 mmHg 62%
    15:00 +26°C° 0.5 mm 1 mps 713 mmHg 66%
    16:00 +25°C° 0.5 mm 1 mps 713 mmHg 70%
    17:00 +24°C° 0.4 mm 1 mps 713 mmHg 75%
    18:00 +20°C° 0.4 mm 0 mps 713 mmHg 79%
    19:00 +19°C° 0.4 mm 0 mps 712 mmHg 84%
    20:00 +18°C° 0.3 mm 0 mps 712 mmHg 86%
    21:00 +17°C° 0.3 mm 0 mps 712 mmHg 88%
    22:00 +17°C° 0.3 mm 0 mps 712 mmHg 90%
    23:00 +18°C° 0.5 mm 1 mps 712 mmHg 91%

    22 July, Sunday

    Time Temperature Precipitation Wind Pressure Humidity
    00:00 +18°C° 0.5 mm 1 mps 712 mmHg 92%
    01:00 +18°C° 0.5 mm 1 mps 711 mmHg 93%
    02:00 +18°C° 0.7 mm 1 mps 711 mmHg 94%
    03:00 +18°C° 0.7 mm 1 mps 711 mmHg 94%
    04:00 +18°C° 0.7 mm 1 mps 711 mmHg 95%
    05:00 +18°C° 0.1 mm 1 mps 711 mmHg 93%
    06:00 +19°C° 0.1 mm 1 mps 711 mmHg 92%
    07:00 +20°C° 0.1 mm 1 mps 711 mmHg 90%
    08:00 +21°C° 0.9 mm 1 mps 711 mmHg 87%
    09:00 +23°C° 0.9 mm 1 mps 710 mmHg 84%
    10:00 +24°C° 0.9 mm 2 mps 710 mmHg 81%
    11:00 +24°C° 1.4 mm 2 mps 710 mmHg 79%
    12:00 +25°C° 1.4 mm 2 mps 710 mmHg 78%
    13:00 +25°C° 1.4 mm 2 mps 710 mmHg 76%
    14:00 +25°C° 1.4 mm 2 mps 710 mmHg 78%
    15:00 +24°C° 1.4 mm 2 mps 710 mmHg 80%
    16:00 +24°C° 1.4 mm 2 mps 710 mmHg 82%
    17:00 +23°C° 1.2 mm 2 mps 710 mmHg 85%
    18:00 +21°C° 1.2 mm 2 mps 710 mmHg 88%
    19:00 +19°C° 1.2 mm 2 mps 710 mmHg 91%
    20:00 +19°C° 1 mm 2 mps 710 mmHg 93%
    21:00 +18°C° 1 mm 2 mps 710 mmHg 94%
    22:00 +17°C° 1 mm 2 mps 711 mmHg 95%
    23:00 +17°C° 0.5 mm 2 mps 711 mmHg 95%

    23 July, Monday

    Time Temperature Precipitation Wind Pressure Humidity
    00:00 +17°C° 0.5 mm 2 mps 711 mmHg 96%
    01:00 +17°C° 0.5 mm 2 mps 711 mmHg 96%
    02:00 +16°C° 0.3 mm 2 mps 711 mmHg 96%
    03:00 +16°C° 0.3 mm 2 mps 711 mmHg 96%
    04:00 +16°C° 0.3 mm 2 mps 712 mmHg 96%
    05:00 +16°C° 0.1 mm 2 mps 712 mmHg 94%
    06:00 +17°C° 0.1 mm 3 mps 713 mmHg 92%
    07:00 +18°C° 0.1 mm 3 mps 713 mmHg 91%
    08:00 +19°C° 0.1 mm 3 mps 713 mmHg 83%
    09:00 +21°C° 0.1 mm 4 mps 713 mmHg 76%
    10:00 +22°C° 0.1 mm 4 mps 714 mmHg 68%
    11:00 +23°C° 0.1 mm 4 mps 714 mmHg 67%
    12:00 +23°C° 0.1 mm 5 mps 714 mmHg 66%
    13:00 +25°C° 0.1 mm 5 mps 714 mmHg 64%
    14:00 +23°C° 0.1 mm 5 mps 714 mmHg 65%
    15:00 +23°C° 0.1 mm 5 mps 714 mmHg 66%
    16:00 +23°C° 0.1 mm 5 mps 714 mmHg 67%
    17:00 +22°C° 0 mm 4 mps 714 mmHg 72%
    18:00 +21°C° 0 mm 3 mps 714 mmHg 77%
    19:00 +19°C° 0 mm 3 mps 714 mmHg 82%
    20:00 +18°C° 0 mm 2 mps 714 mmHg 85%
    21:00 +18°C° 0 mm 2 mps 714 mmHg 87%
    22:00 +17°C° 0 mm 2 mps 714 mmHg 90%
    23:00 +16°C° 0 mm 2 mps 714 mmHg 91%
    Show more